CAPE
0 0 0 0 0 0 0 0 0 0 0 0 0 0 0 0 71 132 205 768 680 676 741 789 716 1028 1140 1044 1143 1193 1110 926 827 533 434 300 403 364 496 636 561 462 408 680
0 0 0 0 0 0 0 0 0 0 0 0 0 0 0 0 0 1 4 82 645 713 191 439 625 988 1129 1039 1132 1153 1105 1149 1034 869 574 384 79 111 359 323 488 505 333 396
0 0 0 0 0 0 0 0 0 0 0 0 0 0 0 0 0 0 2 20 138 446 180 348 693 938 1020 1078 1153 1188 1021 1113 1221 1005 502 119 126 68 265 324 331 445 304 378
0 0 0 0 0 0 0 0 0 0 0 0 0 0 0 0 0 0 0 3 44 245 225 445 675 845 858 996 1086 1091 868 1040 1173 743 718 382 222 135 70 208 209 165 140 261
0 0 0 0 0 0 0 0 0 0 0 0 0 0 0 0 0 0 0 0 0 232 186 367 642 860 831 964 964 966 891 963 1074 820 844 608 323 160 94 113 126 113 15 0
0 0 0 0 0 0 0 0 0 0 0 0 0 0 0 0 0 0 2 9 0 204 365 293 449 666 860 932 1001 907 1013 979 931 835 772 814 690 369 371 133 73 51 33 24
0 0 0 0 0 0 0 0 0 0 0 0 0 0 0 0 0 21 272 326 32 133 295 230 441 651 809 994 1079 1079 1082 1029 939 958 855 810 723 481 394 320 97 15 7 0
0 0 0 0 0 0 0 0 0 0 0 0 0 0 0 0 39 169 412 472 310 275 358 721 692 843 1165 1111 1277 1086 956 1075 981 1112 995 733 564 518 393 309 181 75 42 13
0 0 0 0 0 0 0 0 0 0 0 0 0 0 0 96 105 337 572 462 276 592 616 350 0 0 154 1143 1210 1548 1135 1108 1127 1264 989 827 634 473 378 218 115 93 76 77
0 0 0 0 0 0 0 0 0 0 0 0 0 0 0 160 148 239 497 487 765 965 792 714 415 161 695 924 1075 1381 1791 1365 1319 1443 994 907 821 566 427 259 179 198 209 138
0 0 0 0 0 0 0 0 0 0 0 0 0 0 0 222 166 228 439 585 555 686 82 34 203 201 683 688 935 1661 1627 1839 1692 1600 1464 1227 1026 623 392 339 342 452 271 358
0 0 0 0 0 0 0 0 0 0 0 0 0 0 27 307 76 3 267 567 791 742 249 250 328 278 98 183 989 945 2015 1896 1877 1816 1563 1342 1200 707 301 178 178 430 371 290
0 0 0 0 0 0 0 0 0 0 0 0 0 0 0 0 17 0 1 628 816 464 267 295 81 50 45 17 11 53 213 2177 2058 2020 1713 1436 1093 865 445 185 86 204 354 377
0 0 0 0 0 0 0 0 0 0 0 0 0 0 0 0 0 0 11 344 685 483 272 97 49 67 55 31 4 19 3 6 1791 2062 2022 1472 1321 1022 780 387 156 114 166 280
0 0 0 0 0 0 0 0 0 0 0 0 0 0 0 0 1 0 120 163 341 498 342 113 3 13 32 104 237 410 616 2 787 1899 2018 1903 1531 1203 894 628 424 203 137 190
0 0 0 0 0 0 0 0 0 0 0 0 0 0 0 88 26 13 19 12 7 4 8 176 380 351 422 240 35 667 697 788 443 1665 2179 2122 1695 1038 1202 883 747 491 332 260
0 0 0 0 0 0 0 0 0 0 0 0 0 0 0 0 0 0 0 0 0 0 0 0 0 0 0 0 40 696 495 611 1370 1956 2044 2078 1752 1168 1134 1113 1032 760 535 416
0 0 0 0 0 0 0 0 0 0 0 0 0 0 0 0 0 0 0 0 0 0 0 0 0 0 0 0 0 78 52 845 1005 1014 1718 1840 1614 1583 1155 1004 1051 1004 757 500
0 0 0 0 0 0 0 0 0 0 0 0 0 0 0 0 0 0 0 0 0 0 0 0 0 0 0 0 0 0 0 522 750 942 1427 1732 1592 1637 1313 1223 998 942 876 691
0 0 0 0 0 0 0 0 0 0 0 0 0 0 0 0 0 0 0 0 0 0 0 0 0 0 0 0 0 0 0 56 603 955 1249 1290 1691 1475 1674 1229 1124 1094 926 895
0 0 0 0 0 0 0 0 0 0 0 0 0 0 0 0 0 0 0 0 0 0 0 0 0 0 0 0 0 0 0 0 141 816 1228 1076 894 1413 1636 1422 1096 1080 1115 1080
0 0 0 0 0 0 0 0 0 0 0 0 0 0 0 0 0 0 0 0 0 0 0 0 0 0 0 0 0 0 0 0 17 701 1203 692 546 786 1769 1463 1148 1045 1056 917
0 0 0 0 0 0 0 0 0 0 0 0 0 0 0 0 0 0 0 0 0 0 0 0 0 0 0 0 0 0 0 0 0 655 754 331 274 456 659 1217 1216 963 848 1117
0 0 0 0 0 0 0 0 0 0 0 0 0 0 0 0 0 0 0 0 0 0 0 0 0 0 0 0 0 0 0 0 0 607 496 144 262 316 471 761 907 1157 1010 838
0 0 0 0 0 0 0 0 0 0 0 0 0 0 0 0 0 0 0 0 0 0 0 0 0 0 0 0 0 0 0 0 0 29 175 182 123 125 306 41 1 673 0 13
0 0 0 0 0 0 0 0 0 0 0 0 0 0 0 0 0 0 0 0 0 0 0 0 0 0 0 0 0 0 0 0 0 0 35 72 0 0 132 110 1 1 0 3
CIN
-0 -0 -0 -0 -0 -0 -0 -0 -0 -0 -0 -0 -0 -0 -0 -0 -332 -287 -355 -300 -306 -316 -299 -280 -301 -282 -254 -253 -242 -224 -206 -227 -196 -177 -163 -160 -139 -155 -131 -126 -138 -133 -135 -81
-0 -0 -0 -0 -0 -0 -0 -0 -0 -0 -0 -0 -0 -0 -0 -0 -0 -68 -109 -402 -311 -266 -407 -351 -338 -319 -308 -298 -285 -240 -226 -229 -196 -163 -166 -166 -272 -244 -157 -171 -148 -146 -155 -115
-0 -0 -0 -0 -0 -0 -0 -0 -0 -0 -0 -0 -0 -0 -0 -0 -0 -0 -197 -386 -327 -295 -437 -426 -400 -373 -335 -308 -276 -263 -277 -263 -180 -155 -189 -276 -224 -262 -178 -164 -169 -158 -156 -107
-0 -0 -0 -0 -0 -0 -0 -0 -0 -0 -0 -0 -0 -0 -0 -0 -0 -0 -4 -112 -362 -336 -428 -433 -407 -415 -391 -352 -307 -264 -311 -267 -203 -231 -156 -178 -188 -206 -271 -210 -204 -186 -173 -117
-0 -0 -0 -0 -0 -0 -0 -0 -0 -0 -0 -0 -0 -0 -0 -0 -0 -0 -0 -0 -0 -344 -447 -451 -458 -419 -396 -351 -352 -310 -331 -283 -218 -233 -180 -169 -192 -231 -276 -230 -183 -154 -197 -0
-0 -0 -0 -0 -0 -0 -0 -0 -0 -0 -0 -0 -0 -0 -0 -0 -0 -0 -75 -134 -0 -385 -379 -424 -439 -424 -401 -347 -339 -364 -333 -305 -295 -253 -227 -192 -180 -193 -156 -194 -172 -141 -123 -127
-0 -0 -0 -0 -0 -0 -0 -0 -0 -0 -0 -0 -0 -0 -0 -0 -0 -279 -294 -366 -321 -403 -400 -458 -465 -428 -360 -316 -349 -349 -343 -329 -328 -296 -263 -232 -206 -199 -166 -156 -166 -157 -152 -0
-0 -0 -0 -0 -0 -0 -0 -0 -0 -0 -0 -0 -0 -0 -0 -0 -394 -420 -379 -497 -475 -449 -489 -470 -469 -348 -324 -287 -270 -240 -219 -328 -330 -278 -273 -263 -248 -218 -200 -165 -158 -148 -142 -175
-0 -0 -0 -0 -0 -0 -0 -0 -0 -0 -0 -0 -0 -0 -0 -282 -376 -346 -300 -408 -519 -389 -437 -597 -0 -0 -541 -292 -282 -247 -327 -299 -286 -275 -288 -280 -258 -242 -222 -191 -170 -168 -142 -131
-0 -0 -0 -0 -0 -0 -0 -0 -0 -0 -0 -0 -0 -0 -0 -208 -334 -370 -320 -370 -388 -369 -368 -396 -509 -616 -451 -355 -338 -307 -258 -291 -213 -202 -290 -273 -241 -238 -234 -199 -162 -145 -135 -145
-0 -0 -0 -0 -0 -0 -0 -0 -0 -0 -0 -0 -0 -0 -0 -235 -310 -294 -298 -302 -332 -385 -548 -700 -662 -650 -542 -517 -360 -191 -292 -270 -226 -194 -182 -218 -233 -250 -255 -223 -176 -127 -143 -112
-0 -0 -0 -0 -0 -0 -0 -0 -0 -0 -0 -0 -0 -0 -317 -308 -353 -83 -296 -308 -324 -419 -547 -608 -616 -702 -726 -689 -381 -308 -165 -220 -218 -182 -178 -212 -223 -269 -315 -309 -287 -159 -116 -103
-0 -0 -0 -0 -0 -0 -0 -0 -0 -0 -0 -0 -0 -0 -0 -0 -343 -0 -5 -313 -359 -563 -691 -623 -718 -637 -728 -763 -794 -805 -555 -194 -167 -144 -155 -198 -248 -254 -312 -359 -354 -263 -164 -151
-0 -0 -0 -0 -0 -0 -0 -0 -0 -0 -0 -0 -0 -0 -0 -0 -0 -0 -175 -348 -333 -430 -531 -645 -684 -668 -647 -804 -882 -888 -579 -272 -220 -76 -122 -193 -224 -250 -266 -305 -376 -351 -282 -192
-0 -0 -0 -0 -0 -0 -0 -0 -0 -0 -0 -0 -0 -0 -0 -24 -165 -0 -289 -302 -310 -308 -383 -470 -151 -632 -695 -628 -574 -536 -566 -397 -419 -121 -138 -171 -220 -225 -245 -257 -299 -346 -347 -262
-0 -0 -0 -0 -0 -0 -0 -0 -0 -0 -0 -0 -0 -0 -0 -350 -389 -375 -310 -351 -354 -359 -367 -321 -311 -327 -338 -439 -591 -372 -361 -375 -524 -215 -163 -164 -180 -250 -212 -225 -238 -286 -284 -278
-0 -0 -0 -0 -0 -0 -0 -0 -0 -0 -0 -0 -0 -0 -0 -0 -0 -0 -0 -0 -0 -0 -0 -0 -0 -0 -0 -0 -406 -264 -343 -364 -240 -151 -180 -154 -160 -241 -215 -211 -191 -248 -263 -224
-0 -0 -0 -0 -0 -0 -0 -0 -0 -0 -0 -0 -0 -0 -0 -0 -0 -0 -0 -0 -0 -0 -0 -0 -0 -0 -0 -0 -0 -448 -424 -248 -227 -223 -147 -162 -205 -183 -237 -243 -195 -185 -232 -251
-0 -0 -0 -0 -0 -0 -0 -0 -0 -0 -0 -0 -0 -0 -0 -0 -0 -0 -0 -0 -0 -0 -0 -0 -0 -0 -0 -0 -0 -126 -0 -282 -189 -189 -137 -128 -146 -146 -193 -205 -199 -178 -185 -201
-0 -0 -0 -0 -0 -0 -0 -0 -0 -0 -0 -0 -0 -0 -0 -0 -0 -0 -0 -0 -0 -0 -0 -0 -0 -0 -0 -0 -0 -0 -0 -483 -187 -129 -116 -132 -99 -144 -114 -197 -207 -186 -189 -175
-0 -0 -0 -0 -0 -0 -0 -0 -0 -20 -0 -0 -0 -0 -0 -0 -0 -0 -0 -0 -0 -0 -0 -0 -0 -0 -0 -0 -0 -0 -0 -0 -280 -146 -110 -134 -184 -136 -89 -126 -198 -197 -160 -118
-0 -0 -0 -0 -0 -0 -0 -0 -0 -0 -0 -0 -0 -0 -0 -0 -0 -0 -0 -0 -0 -0 -0 -0 -0 -0 -0 -0 -0 -0 -0 -0 -355 -159 -73 -147 -224 -210 -43 -70 -152 -166 -143 -146
-0 -0 -0 -0 -0 -0 -0 -0 -0 -0 -0 -0 -0 -0 -0 -0 -0 -0 -0 -0 -0 -0 -0 -0 -0 -0 -0 -0 -0 -0 -0 -0 -0 -118 -86 -178 -260 -242 -173 -44 -58 -105 -128 -70
-0 -0 -0 -0 -0 -0 -0 -0 -0 -0 -0 -0 -0 -0 -0 -0 -0 -0 -0 -0 -0 -0 -0 -0 -0 -0 -0 -0 -0 -0 -0 -0 -0 -91 -103 -182 -205 -236 -153 -75 -86 -78 -65 -16
-0 -0 -0 -0 -0 -0 -0 -0 -0 -0 -0 -0 -0 -0 -0 -0 -0 -0 -0 -0 -0 -0 -0 -0 -0 -0 -0 -0 -0 -0 -0 -0 -0 -182 -156 -158 -188 -245 -160 -30 -0 -133 -0 -209
-0 -0 -0 -0 -0 -0 -0 -0 -0 -0 -0 -0 -0 -0 -0 -0 -0 -0 -0 -0 -0 -0 -0 -0 -0 -0 -0 -0 -0 -0 -0 -0 -0 -0 -165 -203 -11 -0 -150 -156 -0 -0 -0 -387
Wind_Speed
4 6 5 11 6 6 6 4 9 4 3 4 8 7 11 11 15 12 11 15 16 19 17 16 15 16 14 13 12 13 11 8 8 4 3 2 4 3 2 4 7 7 6 6
8 6 11 4 6 6 8 6 7 6 4 4 3 9 10 6 9 19 18 15 20 15 8 14 15 16 17 16 14 12 11 9 9 6 4 3 3 2 2 3 6 6 7 6
5 12 7 5 15 4 4 6 3 5 6 4 5 9 6 5 6 7 10 17 15 17 15 14 15 17 15 14 16 14 11 11 10 7 4 3 3 2 1 2 2 4 7 7
6 6 3 4 7 5 2 2 3 4 4 3 3 6 7 7 9 5 2 9 13 14 12 13 15 15 16 14 11 11 10 10 8 9 7 6 4 5 4 3 2 4 6 6
9 7 5 5 6 6 7 2 3 3 2 3 4 3 10 5 7 6 4 7 7 13 15 17 18 16 13 12 13 12 9 10 8 10 11 8 5 4 3 2 4 4 4 5
9 4 5 8 4 3 3 4 7 5 3 4 5 5 8 5 6 5 7 8 8 12 16 11 9 11 9 9 10 10 12 12 10 10 9 11 9 7 4 4 6 5 4 4
6 5 5 4 2 4 7 8 5 7 7 6 3 1 2 11 7 6 6 8 6 6 7 10 11 8 5 3 10 11 13 12 11 13 11 11 10 8 8 7 6 6 6 3
1 9 5 1 4 4 3 6 7 3 3 6 3 4 4 6 3 6 8 7 11 14 16 15 10 6 8 7 7 7 7 10 11 12 11 8 8 7 6 6 4 5 6 6
5 5 6 3 3 5 1 3 3 6 2 2 4 1 2 5 10 11 12 15 12 14 17 16 9 2 5 4 8 7 7 6 9 12 8 9 9 10 9 7 6 5 5 5
5 1 2 6 7 7 8 3 5 5 0 3 5 5 4 3 6 6 8 10 14 14 12 10 6 4 4 5 7 11 9 10 10 9 8 8 10 9 8 5 7 8 6 6
5 4 5 3 5 1 6 5 5 5 4 4 2 7 6 5 1 3 3 4 9 10 12 9 5 6 12 3 3 4 10 11 10 10 8 9 9 7 6 6 7 7 6 5
1 6 1 2 2 3 5 3 4 6 7 2 4 8 4 6 5 4 3 3 4 6 5 7 8 8 10 5 3 6 4 8 11 11 8 11 9 7 7 7 7 6 6 5
3 3 4 10 7 7 7 4 2 3 3 4 3 7 3 4 7 6 3 5 4 5 5 6 4 7 8 7 6 7 3 3 8 8 9 8 9 8 9 9 7 8 8 7
8 3 7 8 7 4 2 3 2 3 2 3 6 6 7 4 4 3 0 4 6 5 5 3 4 4 6 8 9 9 4 4 6 8 9 9 10 11 10 9 8 10 8 7
6 3 2 4 3 3 5 3 1 3 5 5 7 4 5 6 4 5 7 5 8 6 4 3 2 3 6 7 8 9 8 7 7 8 10 13 12 10 9 9 9 8 8 9
3 1 2 2 3 0 2 2 4 1 2 7 4 3 6 6 10 12 8 6 5 6 5 3 3 4 6 8 7 4 6 6 5 8 12 13 7 9 10 11 10 8 9 8
3 6 4 6 2 3 3 2 4 4 3 4 2 1 4 8 8 5 5 5 6 5 3 2 3 4 5 5 4 4 5 4 6 7 8 9 8 8 10 10 10 10 10 9
7 6 3 4 3 1 5 4 10 12 4 6 5 5 4 3 3 3 3 1 1 3 4 4 3 3 5 5 4 5 7 5 5 6 8 7 10 10 9 11 13 12 10 11
3 6 3 4 4 3 4 2 1 2 1 2 2 5 5 7 4 5 2 1 4 4 6 6 3 5 7 8 8 6 4 5 6 6 6 6 7 11 9 13 14 13 11 10
7 5 5 3 3 7 1 5 3 3 1 1 2 4 5 5 4 6 6 5 6 5 3 5 6 6 4 6 5 7 8 6 7 6 6 6 6 9 13 12 11 11 10 12
5 5 3 1 2 1 4 8 6 3 4 4 3 4 5 4 6 7 10 7 6 5 7 6 6 6 6 5 5 7 6 6 7 7 6 5 4 7 11 11 11 11 11 10
2 1 1 1 1 4 4 3 3 3 2 3 4 6 8 10 13 12 11 10 10 9 8 8 6 6 7 6 4 7 8 9 6 6 7 6 5 4 5 9 10 10 10 12
2 5 3 6 5 4 2 2 4 5 4 5 5 9 10 13 13 14 13 13 12 11 9 7 7 8 7 7 5 7 8 7 9 7 7 7 5 5 5 5 8 7 9 9
4 2 2 3 3 4 6 5 4 4 6 9 10 11 14 17 16 17 15 12 10 10 10 11 8 8 8 7 7 7 7 7 8 8 7 6 6 4 2 5 7 7 5 6
4 2 1 4 6 7 4 7 7 9 9 12 13 13 15 15 15 16 15 16 16 13 12 10 10 9 10 9 8 7 7 5 7 8 8 6 5 4 3 1 4 5 6 5
3 6 4 6 7 6 9 7 7 9 13 14 12 14 15 15 17 18 17 15 14 14 12 9 10 9 11 11 11 9 8 7 7 8 7 6 4 4 2 4 4 9 8 25
Wind_Direction
10 47 267 250 194 207 265 228 246 259 228 213 241 264 266 191 215 209 197 203 202 210 209 210 195 190 186 186 181 184 177 163 152 144 141 142 197 182 223 209 193 188 180 179
8 277 259 260 182 208 226 266 285 301 323 170 222 270 269 178 214 208 199 199 208 204 181 190 183 180 183 185 180 175 181 163 171 163 169 157 151 200 214 200 195 181 175 185
166 248 350 333 302 296 218 215 236 223 327 337 334 308 317 266 244 225 205 201 201 192 179 180 177 183 179 183 182 180 176 171 178 153 117 70 72 35 326 239 199 181 176 192
235 290 252 320 262 143 268 192 236 278 59 280 63 281 314 316 315 21 212 177 191 187 180 172 175 180 180 183 174 175 168 174 174 150 159 164 187 186 207 195 187 185 178 183
252 290 324 310 245 196 227 20 12 354 73 9 340 74 270 335 353 341 296 242 205 189 174 177 182 177 177 171 172 169 159 176 176 171 172 185 184 213 169 160 182 203 200 204
249 260 218 214 256 233 39 55 39 44 51 32 258 137 286 332 316 2 16 333 221 188 187 171 153 153 161 166 165 167 171 187 175 176 181 186 191 194 190 180 191 196 201 201
316 276 273 185 285 358 69 50 354 3 7 232 342 58 273 326 353 114 60 347 18 149 96 77 85 94 41 199 174 173 182 190 188 184 188 193 201 191 203 198 194 185 194 204
113 336 347 290 181 181 35 128 149 220 241 267 314 358 312 322 29 61 57 48 45 84 108 112 102 140 150 165 183 203 207 191 190 196 194 193 196 208 206 202 185 209 209 194
141 277 314 353 85 105 23 3 197 108 54 10 292 212 332 354 30 39 48 59 55 114 130 127 113 126 321 217 183 183 188 208 214 202 190 193 198 204 208 201 196 198 203 191
190 346 287 311 44 14 97 182 24 8 261 279 294 286 230 323 36 23 38 63 87 104 110 114 128 51 76 193 182 179 179 198 207 212 194 208 200 203 204 179 195 203 200 201
124 107 277 46 34 23 16 14 40 113 124 163 280 268 201 195 228 79 86 75 105 131 141 146 143 151 207 183 311 259 179 181 195 200 202 191 205 201 193 194 195 204 181 189
55 124 76 150 305 355 88 93 107 110 294 185 157 273 254 197 209 245 103 41 66 103 122 163 190 206 225 180 32 359 303 200 203 205 193 202 197 189 192 205 192 173 187 181
174 29 35 346 357 7 55 360 103 108 84 239 127 268 235 275 286 61 161 119 86 95 108 189 223 272 9 2 207 155 253 253 220 206 199 201 198 194 209 210 191 180 187 189
78 107 154 186 200 158 73 350 82 108 113 268 230 286 275 309 30 114 306 120 123 113 106 76 349 319 297 317 315 319 284 232 277 201 197 202 208 207 202 217 200 187 189 196
87 122 192 233 232 192 185 183 259 208 222 185 255 265 335 329 329 188 147 109 104 102 104 122 191 258 294 301 304 321 314 241 205 237 203 217 205 212 192 202 212 202 191 202
3 158 178 268 229 335 220 305 253 38 346 260 78 67 352 358 59 50 35 32 57 89 95 125 210 252 277 283 300 305 7 305 253 251 229 232 196 204 199 200 203 199 200 198
141 139 102 248 319 334 340 247 102 108 2 246 144 338 345 38 53 43 45 27 2 13 51 43 330 289 269 271 308 357 357 330 336 283 257 236 222 200 204 202 198 212 200 189
146 123 120 210 42 235 267 81 111 110 40 8 45 24 35 108 219 239 285 336 6 311 348 329 259 311 325 319 298 351 358 340 327 314 272 235 224 220 201 191 201 203 204 201
135 123 121 148 183 268 155 297 66 158 206 331 40 353 350 335 293 242 20 306 271 277 264 253 301 321 327 334 332 354 325 304 317 313 323 283 240 234 212 207 208 206 192 202
76 72 114 124 165 213 303 316 328 139 262 281 355 360 340 1 348 263 298 321 307 293 269 298 264 217 249 307 313 322 320 319 299 289 293 294 253 238 237 219 209 208 206 203
360 359 85 77 233 1 323 297 304 177 239 340 352 303 304 276 221 276 310 295 263 260 277 292 309 315 306 320 322 310 291 269 254 272 263 280 282 258 244 233 220 204 205 211
125 87 303 48 268 257 343 320 6 195 270 261 260 260 265 264 272 275 273 271 275 276 277 265 260 272 285 284 310 302 299 287 289 272 272 277 274 274 264 242 225 222 200 199
360 174 203 168 223 217 280 169 188 171 231 264 257 280 264 267 270 274 272 270 266 265 272 252 244 254 267 279 257 275 270 293 299 267 266 278 275 271 267 254 236 232 223 210
321 82 116 52 244 240 260 247 241 229 257 277 267 271 280 279 282 279 278 274 266 267 268 259 245 249 252 253 257 245 270 285 292 278 271 278 290 299 300 264 279 208 199 247
206 59 91 280 281 306 294 218 250 266 254 262 261 260 267 273 273 273 276 277 277 273 269 261 249 251 252 254 246 244 259 272 288 281 272 261 264 290 307 83 281 220 161 139
190 183 155 227 233 208 257 255 256 263 271 269 259 268 264 265 270 275 275 267 264 267 266 255 251 247 258 259 252 244 241 242 251 276 271 254 258 264 225 161 75 359 132 116